Regional Weather Roundup
Issued by NWS

Home | Current Version | Previous Version | Graphics & Text | Print | Product List | Glossary On
Versions: 1 2 3 4 5 6 7 8 9 10 11 12 13 14 15 16 17 18 19 20 21 22 23 24 25 26 27 28 29 30 31 32 33 34 35 36 37 38 39 40 41 42 43 44 45 46 47 48 49 50
000
ASUS45 KBOU 281107
RWRCO

WEATHER ROUNDUP FOR COLORADO
NATIONAL WEATHER SERVICE DENVER/BOULDER CO
400 AM MST TUE FEB 28 2017

NOTE: "FAIR" INDICATES FEW OR NO CLOUDS BELOW 12000 FEET WITH NO
SIGNIFICANT WEATHER AND/OR OBSTRUCTIONS TO VISIBILITY.

COZ001>005-013-030-031-281200-
...NORTHWEST COLORADO...

CITY           SKY/WX    TMP DP  RH WIND       PRES   REMARKS
CRAIG          LGT SNOW  20  14  77 CALM      29.77R
HAYDEN         CLOUDY    18  10  73 SW5       29.73S WCI  11
MEEKER         FLURRIES  23  18  81 CALM      29.73R
MOUNT WERNER   NOT AVBL
STEAMBOAT SPGS CLOUDY    17  15  93 CALM      29.72S
WALDEN         NOT AVBL
$$

COZ006>008-011-281200-
...WEST CENTRAL VALLEYS...

CITY           SKY/WX    TMP DP  RH WIND       PRES   REMARKS
GRAND JUNCTION LGT SNOW  31  31 100 W7        29.71R FOG     WCI  24
MONTROSE       CLOUDY    35  29  78 S8        29.70F WCI  29
EAGLE          FLURRIES  24  20  84 W9        29.70R WCI  14
RIFLE          LGT SNOW  27  25  92 W5        29.73R FOG     WCI  22
DELTA          CLOUDY    37  32  81 CALM      29.68S
NUCLA          CLOUDY    34  30  86 SE3       29.73S
$$

COZ017>023-064>068-281200-
...SOUTHWEST COLORADO...

CITY           SKY/WX    TMP DP  RH WIND       PRES   REMARKS
DURANGO        LGT SNOW  31  29  92 SW9       29.71F FOG     WCI  23
CORTEZ         SNOW      32  32 100 W3        29.73S VSB 1/2
PAGOSA SPRINGS LGT SNOW  32  32 100 SW9       29.71F VSB 3/4 WCI  24
TELLURIDE      LGT SNOW  25  21  84 NW12G22   29.71S WCI  14
WOLF CREEK PAS CLOUDY    18  18 100 S26G36    29.70S WCI  -1
$$

COZ009-010-012-014-032>034-037-058>063-281200-
...CENTRAL COLORADO...

CITY           SKY/WX    TMP DP  RH WIND       PRES   REMARKS
ASPEN          CLOUDY    27  25  92 CALM      29.62S
BUENA VISTA    LGT SNOW  28  26  91 CALM      29.66S
COPPER MTN     LGT SNOW  19  12  73 MISG      29.61F
BERTHOUD PASS  LGT SNOW  10   0  61 SW8       29.60S WCI  -1
COTTONWOOD PAS LGT SNOW  27  21  80 SW13      29.65S WCI  16
GUNNISON       LGT SNOW  27  24  89 SW7       29.68F FOG     WCI  19
KREMMLING      LGT SNOW  23  21  93 CALM      29.70S VSB 1
LEADVILLE      LGT SNOW  18  15  88 CALM      29.62S FOG
MONARCH PASS   CLOUDY    16  12  86 W18G25    29.75R WCI  -1
SALIDA         CLOUDY    32  28  85 S5        29.74R WCI  28
SUNLIGHT       NOT AVBL
WILKERSON PASS LGT SNOW  19  16  86 SW8       29.66S VSB 1   WCI   9
$$

COZ069>075-281200-
...SAN LUIS VALLEY/SANGRE DE CRISTO MOUNTAINS...

CITY           SKY/WX    TMP DP  RH WIND       PRES   REMARKS
ALAMOSA        CLOUDY    32  31  96 S21G26    29.68S WCI  20
LA VETA PASS   LGT SNOW  27  23  86 S30G49    29.65F WCI  10
SAGUACHE       LGT SNOW  27  27 100 NW6       29.68F WCI  20
$$

COZ035-036-038>040-281200-
...NORTHERN COLORADO FRONT RANGE...

CITY           SKY/WX    TMP DP  RH WIND       PRES   REMARKS
DENVER INTL AP MOCLDY    23  16  74 S10       29.68S WCI  12
DMNS CITY PARK   N/A     29  18  65 E8        29.69S WCI  21
AURORA         MOCLDY    21  17  84 S7        29.69S WCI  12
FRONT RANGE AP FAIR      23  19  86 S6        29.69R WCI  16
ERIE MUNI ARPT FAIR      29  20  70 S3        29.69R
BOULDER MUN AP MOCLDY    32  21  64 S6        29.67R WCI  26
CENTENNIAL     FAIR      25  17  72 S5        29.68S WCI  19
BROOMFIELD     FAIR      30  21  69 S7        29.68R WCI  23
FORT COLLINS   FAIR      29  22  75 S9        29.69R WCI  20
LONGMONT       NOT AVBL
$$

COZ041-046-047-076>085-087-088-281200-
...PIKES PEAK/PALMER DIVIDE AND SOUTHERN FOOTHILLS...

CITY           SKY/WX    TMP DP  RH WIND       PRES   REMARKS
COLO. SPRINGS  FAIR      26  15  63 N10       29.67R WCI  16
A. F. ACADEMY  FAIR      25  16  67 N8        29.66R WCI  16
SCHRIEVER AFB  FAIR      24  16  73 N15       29.66S WCI  11
ELLICOTT       FAIR     N/A N/A N/A E21G28    29.63F
FALCON         FAIR      21  15  75 N7        29.66F WCI  13
FORT CARSON    FAIR      28  16  61 N9        29.66R WCI  19
LIMON          FAIR     N/A N/A N/A N6        29.69S
MONUMENT HILL  FAIR      19  16  86 E6        29.67S WCI  11
TRINIDAD       FAIR      45  25  45 SW23G33   29.61F
$$

COZ042>045-048>051-090-091-281200-
...NORTHEAST COLORADO...

CITY           SKY/WX    TMP DP  RH WIND       PRES   REMARKS
GREELEY ARPT   FAIR      27  21  78 SW8       29.71R WCI  19
AKRON          FAIR      23  18  81 N9        29.69S WCI  13
BURLINGTON     FAIR      22  19  89 NW12      29.70F WCI  10
WRAY           NOT AVBL
STERLING       FAIR      21  19  93 SW3       29.70F
HOLYOKE        FAIR      32  23  69 NW9       29.71S WCI  24
FORT MORGAN    FAIR      21  19  91 CALM      29.70S
$$

COZ086-089-092>099-281200-
...SOUTHEAST COLORADO...

CITY           SKY/WX    TMP DP  RH WIND       PRES   REMARKS
PUEBLO         FAIR      31  16  54 N18G28    29.64R WCI  19
LA JUNTA       FAIR      31  19  61 N17       29.66R WCI  19
LAMAR          FAIR      31  20  63 N8        29.65S WCI  23
SPRINGFIELD      N/A     40  25  55 SW9       29.67S
$$



USA.gov is the U.S. government's official web portal to all federal, state and local government web resources and services.